owner,sensor,date,latitude,longitude,vertical_datum,sea_water_temperature,qcFlag 
LUMCON,ioos:station:LUMCON:101:1,2016-09-01T00:00:00Z,29.2533,-90.6633,1.0,30.64,2 
LUMCON,ioos:station:LUMCON:101:1,2016-09-01T00:15:00Z,29.2533,-90.6633,1.0,30.66,2 
LUMCON,ioos:station:LUMCON:101:1,2016-09-01T00:30:00Z,29.2533,-90.6633,1.0,30.68,2 
LUMCON,ioos:station:LUMCON:101:1,2016-09-01T00:45:00Z,29.2533,-90.6633,1.0,30.69,2 
LUMCON,ioos:station:LUMCON:101:1,2016-09-01T01:00:00Z,29.2533,-90.6633,1.0,30.68,2 
LUMCON,ioos:station:LUMCON:101:1,2016-09-01T01:15:00Z,29.2533,-90.6633,1.0,30.65,2 
LUMCON,ioos:station:LUMCON:101:1,2016-09-01T01:30:00Z,29.2533,-90.6633,1.0,30.63,2 
LUMCON,ioos:station:LUMCON:101:1,2016-09-01T01:45:00Z,29.2533,-90.6633,1.0,30.63,2 
LUMCON,ioos:station:LUMCON:101:1,2016-09-01T02:00:00Z,29.2533,-90.6633,1.0,30.62,2 
LUMCON,ioos:station:LUMCON:101:1,2016-09-01T02:15:00Z,29.2533,-90.6633,1.0,30.58,2 
LUMCON,ioos:station:LUMCON:101:1,2016-09-01T02:30:00Z,29.2533,-90.6633,1.0,30.55,2 
LUMCON,ioos:station:LUMCON:101:1,2016-09-01T02:45:00Z,29.2533,-90.6633,1.0,30.47,2 
LUMCON,ioos:station:LUMCON:101:1,2016-09-01T03:00:00Z,29.2533,-90.6633,1.0,30.18,2 
LUMCON,ioos:station:LUMCON:101:1,2016-09-01T03:15:00Z,29.2533,-90.6633,1.0,29.94,2 
LUMCON,ioos:station:LUMCON:101:1,2016-09-01T03:30:00Z,29.2533,-90.6633,1.0,30.0,2 
LUMCON,ioos:station:LUMCON:101:1,2016-09-01T03:45:00Z,29.2533,-90.6633,1.0,29.75,2 
LUMCON,ioos:station:LUMCON:101:1,2016-09-01T04:00:00Z,29.2533,-90.6633,1.0,29.74,2 
LUMCON,ioos:station:LUMCON:101:1,2016-09-01T04:15:00Z,29.2533,-90.6633,1.0,29.99,2 
LUMCON,ioos:station:LUMCON:101:1,2016-09-01T04:30:00Z,29.2533,-90.6633,1.0,29.95,2 
LUMCON,ioos:station:LUMCON:101:1,2016-09-01T04:45:00Z,29.2533,-90.6633,1.0,29.95,2 
LUMCON,ioos:station:LUMCON:101:1,2016-09-01T05:00:00Z,29.2533,-90.6633,1.0,29.97,2 
LUMCON,ioos:station:LUMCON:101:1,2016-09-01T05:15:00Z,29.2533,-90.6633,1.0,30.0,2 
LUMCON,ioos:station:LUMCON:101:1,2016-09-01T05:45:00Z,29.2533,-90.6633,1.0,29.95,2 
LUMCON,ioos:station:LUMCON:101:1,2016-09-01T06:00:00Z,29.2533,-90.6633,1.0,29.93,2 
LUMCON,ioos:station:LUMCON:101:1,2016-09-01T06:15:00Z,29.2533,-90.6633,1.0,29.91,2 
LUMCON,ioos:station:LUMCON:101:1,2016-09-01T06:30:00Z,29.2533,-90.6633,1.0,29.9,2 
LUMCON,ioos:station:LUMCON:101:1,2016-09-01T06:45:00Z,29.2533,-90.6633,1.0,29.86,2 
LUMCON,ioos:station:LUMCON:101:1,2016-09-01T07:00:00Z,29.2533,-90.6633,1.0,29.85,2 
LUMCON,ioos:station:LUMCON:101:1,2016-09-01T07:15:00Z,29.2533,-90.6633,1.0,29.82,2 
LUMCON,ioos:station:LUMCON:101:1,2016-09-01T07:30:00Z,29.2533,-90.6633,1.0,29.79,2 
LUMCON,ioos:station:LUMCON:101:1,2016-09-01T07:45:00Z,29.2533,-90.6633,1.0,29.77,2 
LUMCON,ioos:station:LUMCON:101:1,2016-09-01T08:00:00Z,29.2533,-90.6633,1.0,29.75,2 
LUMCON,ioos:station:LUMCON:101:1,2016-09-01T08:15:00Z,29.2533,-90.6633,1.0,29.72,2 
LUMCON,ioos:station:LUMCON:101:1,2016-09-01T08:30:00Z,29.2533,-90.6633,1.0,29.68,2 
LUMCON,ioos:station:LUMCON:101:1,2016-09-01T08:45:00Z,29.2533,-90.6633,1.0,29.66,2 
LUMCON,ioos:station:LUMCON:101:1,2016-09-01T09:00:00Z,29.2533,-90.6633,1.0,29.63,2 
LUMCON,ioos:station:LUMCON:101:1,2016-09-01T09:15:00Z,29.2533,-90.6633,1.0,29.62,2 
LUMCON,ioos:station:LUMCON:101:1,2016-09-01T09:30:00Z,29.2533,-90.6633,1.0,29.59,2 
LUMCON,ioos:station:LUMCON:101:1,2016-09-01T09:45:00Z,29.2533,-90.6633,1.0,29.56,2 
LUMCON,ioos:station:LUMCON:101:1,2016-09-01T10:00:00Z,29.2533,-90.6633,1.0,29.53,2 
LUMCON,ioos:station:LUMCON:101:1,2016-09-01T10:15:00Z,29.2533,-90.6633,1.0,29.54,2 
LUMCON,ioos:station:LUMCON:101:1,2016-09-01T10:30:00Z,29.2533,-90.6633,1.0,29.51,2 
LUMCON,ioos:station:LUMCON:101:1,2016-09-01T10:45:00Z,29.2533,-90.6633,1.0,29.48,2 
LUMCON,ioos:station:LUMCON:101:1,2016-09-01T11:00:00Z,29.2533,-90.6633,1.0,29.41,2 
LUMCON,ioos:station:LUMCON:101:1,2016-09-01T11:15:00Z,29.2533,-90.6633,1.0,29.4,2 
LUMCON,ioos:station:LUMCON:101:1,2016-09-01T11:30:00Z,29.2533,-90.6633,1.0,29.34,2 
LUMCON,ioos:station:LUMCON:101:1,2016-09-01T11:45:00Z,29.2533,-90.6633,1.0,29.3,2 
LUMCON,ioos:station:LUMCON:101:1,2016-09-01T12:00:00Z,29.2533,-90.6633,1.0,29.27,2 
LUMCON,ioos:station:LUMCON:101:1,2016-09-01T12:15:00Z,29.2533,-90.6633,1.0,29.25,2 
LUMCON,ioos:station:LUMCON:101:1,2016-09-01T12:30:00Z,29.2533,-90.6633,1.0,29.24,2 
LUMCON,ioos:station:LUMCON:101:1,2016-09-01T12:45:00Z,29.2533,-90.6633,1.0,29.22,2 
LUMCON,ioos:station:LUMCON:101:1,2016-09-01T13:00:00Z,29.2533,-90.6633,1.0,29.19,2 
LUMCON,ioos:station:LUMCON:101:1,2016-09-01T13:15:00Z,29.2533,-90.6633,1.0,29.17,2 
LUMCON,ioos:station:LUMCON:101:1,2016-09-01T13:30:00Z,29.2533,-90.6633,1.0,29.16,2 
LUMCON,ioos:station:LUMCON:101:1,2016-09-01T13:45:00Z,29.2533,-90.6633,1.0,29.17,2 
LUMCON,ioos:station:LUMCON:101:1,2016-09-01T14:00:00Z,29.2533,-90.6633,1.0,29.19,2 
LUMCON,ioos:station:LUMCON:101:1,2016-09-01T14:15:00Z,29.2533,-90.6633,1.0,29.21,2 
LUMCON,ioos:station:LUMCON:101:1,2016-09-01T14:30:00Z,29.2533,-90.6633,1.0,29.23,2 
LUMCON,ioos:station:LUMCON:101:1,2016-09-01T14:45:00Z,29.2533,-90.6633,1.0,29.25,2 
LUMCON,ioos:station:LUMCON:101:1,2016-09-01T15:00:00Z,29.2533,-90.6633,1.0,29.29,2 
LUMCON,ioos:station:LUMCON:101:1,2016-09-01T15:15:00Z,29.2533,-90.6633,1.0,29.34,2 
LUMCON,ioos:station:LUMCON:101:1,2016-09-01T15:30:00Z,29.2533,-90.6633,1.0,29.43,2 
LUMCON,ioos:station:LUMCON:101:1,2016-09-01T15:45:00Z,29.2533,-90.6633,1.0,29.4,2 
LUMCON,ioos:station:LUMCON:101:1,2016-09-01T16:00:00Z,29.2533,-90.6633,1.0,29.39,2 
LUMCON,ioos:station:LUMCON:101:1,2016-09-01T16:15:00Z,29.2533,-90.6633,1.0,29.36,2 
LUMCON,ioos:station:LUMCON:101:1,2016-09-01T16:30:00Z,29.2533,-90.6633,1.0,29.41,2 
LUMCON,ioos:station:LUMCON:101:1,2016-09-01T16:45:00Z,29.2533,-90.6633,1.0,29.37,2 
LUMCON,ioos:station:LUMCON:101:1,2016-09-01T17:00:00Z,29.2533,-90.6633,1.0,29.41,2 
LUMCON,ioos:station:LUMCON:101:1,2016-09-01T17:15:00Z,29.2533,-90.6633,1.0,29.37,2 
LUMCON,ioos:station:LUMCON:101:1,2016-09-01T17:30:00Z,29.2533,-90.6633,1.0,29.46,2 
LUMCON,ioos:station:LUMCON:101:1,2016-09-01T17:45:00Z,29.2533,-90.6633,1.0,29.54,2 
LUMCON,ioos:station:LUMCON:101:1,2016-09-01T18:00:00Z,29.2533,-90.6633,1.0,29.71,2 
LUMCON,ioos:station:LUMCON:101:1,2016-09-01T18:15:00Z,29.2533,-90.6633,1.0,29.59,2 
LUMCON,ioos:station:LUMCON:101:1,2016-09-01T18:30:00Z,29.2533,-90.6633,1.0,29.55,2 
LUMCON,ioos:station:LUMCON:101:1,2016-09-01T18:45:00Z,29.2533,-90.6633,1.0,29.75,2 
LUMCON,ioos:station:LUMCON:101:1,2016-09-01T19:00:00Z,29.2533,-90.6633,1.0,29.75,2 
LUMCON,ioos:station:LUMCON:101:1,2016-09-01T19:15:00Z,29.2533,-90.6633,1.0,29.65,2 
LUMCON,ioos:station:LUMCON:101:1,2016-09-01T19:30:00Z,29.2533,-90.6633,1.0,29.7,2 
LUMCON,ioos:station:LUMCON:101:1,2016-09-01T19:45:00Z,29.2533,-90.6633,1.0,29.76,2 
LUMCON,ioos:station:LUMCON:101:1,2016-09-01T20:00:00Z,29.2533,-90.6633,1.0,30.08,2 
LUMCON,ioos:station:LUMCON:101:1,2016-09-01T20:15:00Z,29.2533,-90.6633,1.0,30.16,2 
LUMCON,ioos:station:LUMCON:101:1,2016-09-01T20:30:00Z,29.2533,-90.6633,1.0,29.76,2 
LUMCON,ioos:station:LUMCON:101:1,2016-09-01T20:45:00Z,29.2533,-90.6633,1.0,29.9,2 
LUMCON,ioos:station:LUMCON:101:1,2016-09-01T21:00:00Z,29.2533,-90.6633,1.0,29.98,2 
LUMCON,ioos:station:LUMCON:101:1,2016-09-01T21:15:00Z,29.2533,-90.6633,1.0,30.12,2 
LUMCON,ioos:station:LUMCON:101:1,2016-09-01T21:30:00Z,29.2533,-90.6633,1.0,30.27,2 
LUMCON,ioos:station:LUMCON:101:1,2016-09-01T21:45:00Z,29.2533,-90.6633,1.0,30.34,2 
LUMCON,ioos:station:LUMCON:101:1,2016-09-01T22:00:00Z,29.2533,-90.6633,1.0,30.61,2 
LUMCON,ioos:station:LUMCON:101:1,2016-09-01T22:15:00Z,29.2533,-90.6633,1.0,30.7,2 
LUMCON,ioos:station:LUMCON:101:1,2016-09-01T22:30:00Z,29.2533,-90.6633,1.0,30.98,2 
LUMCON,ioos:station:LUMCON:101:1,2016-09-01T22:45:00Z,29.2533,-90.6633,1.0,31.02,2 
LUMCON,ioos:station:LUMCON:101:1,2016-09-01T23:00:00Z,29.2533,-90.6633,1.0,31.04,2 
LUMCON,ioos:station:LUMCON:101:1,2016-09-01T23:15:00Z,29.2533,-90.6633,1.0,31.04,2 
LUMCON,ioos:station:LUMCON:101:1,2016-09-01T23:30:00Z,29.2533,-90.6633,1.0,31.07,2 
LUMCON,ioos:station:LUMCON:101:1,2016-09-01T23:45:00Z,29.2533,-90.6633,1.0,31.11,2 
LUMCON,ioos:station:LUMCON:101:1,2016-09-02T00:00:00Z,29.2533,-90.6633,1.0,31.17,2 
LUMCON,ioos:station:LUMCON:101:1,2016-09-02T00:15:00Z,29.2533,-90.6633,1.0,31.17,2 
LUMCON,ioos:station:LUMCON:101:1,2016-09-02T00:30:00Z,29.2533,-90.6633,1.0,31.15,2 
LUMCON,ioos:station:LUMCON:101:1,2016-09-02T00:45:00Z,29.2533,-90.6633,1.0,31.13,2 
LUMCON,ioos:station:LUMCON:101:1,2016-09-02T01:00:00Z,29.2533,-90.6633,1.0,31.11,2 
LUMCON,ioos:station:LUMCON:101:1,2016-09-02T01:15:00Z,29.2533,-90.6633,1.0,31.09,2 
LUMCON,ioos:station:LUMCON:101:1,2016-09-02T01:30:00Z,29.2533,-90.6633,1.0,31.07,2 
LUMCON,ioos:station:LUMCON:101:1,2016-09-02T01:45:00Z,29.2533,-90.6633,1.0,31.08,2 
LUMCON,ioos:station:LUMCON:101:1,2016-09-02T02:00:00Z,29.2533,-90.6633,1.0,31.06,2 
LUMCON,ioos:station:LUMCON:101:1,2016-09-02T02:15:00Z,29.2533,-90.6633,1.0,31.09,2 
LUMCON,ioos:station:LUMCON:101:1,2016-09-02T02:30:00Z,29.2533,-90.6633,1.0,31.07,2 
LUMCON,ioos:station:LUMCON:101:1,2016-09-02T02:45:00Z,29.2533,-90.6633,1.0,31.02,2 
LUMCON,ioos:station:LUMCON:101:1,2016-09-02T03:00:00Z,29.2533,-90.6633,1.0,31.0,2 
LUMCON,ioos:station:LUMCON:101:1,2016-09-02T03:15:00Z,29.2533,-90.6633,1.0,30.98,2 
LUMCON,ioos:station:LUMCON:101:1,2016-09-02T03:30:00Z,29.2533,-90.6633,1.0,30.97,2 
LUMCON,ioos:station:LUMCON:101:1,2016-09-02T03:45:00Z,29.2533,-90.6633,1.0,30.97,2 
LUMCON,ioos:station:LUMCON:101:1,2016-09-02T04:00:00Z,29.2533,-90.6633,1.0,30.93,2 
LUMCON,ioos:station:LUMCON:101:1,2016-09-02T04:15:00Z,29.2533,-90.6633,1.0,30.78,2 
LUMCON,ioos:station:LUMCON:101:1,2016-09-02T04:30:00Z,29.2533,-90.6633,1.0,30.66,2 
LUMCON,ioos:station:LUMCON:101:1,2016-09-02T04:45:00Z,29.2533,-90.6633,1.0,30.51,2 
LUMCON,ioos:station:LUMCON:101:1,2016-09-02T05:00:00Z,29.2533,-90.6633,1.0,30.44,2 
LUMCON,ioos:station:LUMCON:101:1,2016-09-02T05:15:00Z,29.2533,-90.6633,1.0,30.4,2 
LUMCON,ioos:station:LUMCON:101:1,2016-09-02T05:30:00Z,29.2533,-90.6633,1.0,30.42,2 
LUMCON,ioos:station:LUMCON:101:1,2016-09-02T05:45:00Z,29.2533,-90.6633,1.0,30.41,2 
LUMCON,ioos:station:LUMCON:101:1,2016-09-02T06:00:00Z,29.2533,-90.6633,1.0,30.44,2 
LUMCON,ioos:station:LUMCON:101:1,2016-09-02T06:15:00Z,29.2533,-90.6633,1.0,30.37,2 
LUMCON,ioos:station:LUMCON:101:1,2016-09-02T06:30:00Z,29.2533,-90.6633,1.0,30.4,2 
LUMCON,ioos:station:LUMCON:101:1,2016-09-02T06:45:00Z,29.2533,-90.6633,1.0,30.36,2 
LUMCON,ioos:station:LUMCON:101:1,2016-09-02T07:00:00Z,29.2533,-90.6633,1.0,30.4,2 
LUMCON,ioos:station:LUMCON:101:1,2016-09-02T07:15:00Z,29.2533,-90.6633,1.0,30.47,2 
LUMCON,ioos:station:LUMCON:101:1,2016-09-02T07:45:00Z,29.2533,-90.6633,1.0,30.52,2 
LUMCON,ioos:station:LUMCON:101:1,2016-09-02T08:00:00Z,29.2533,-90.6633,1.0,30.55,2 
LUMCON,ioos:station:LUMCON:101:1,2016-09-02T08:15:00Z,29.2533,-90.6633,1.0,30.55,2 
LUMCON,ioos:station:LUMCON:101:1,2016-09-02T09:00:00Z,29.2533,-90.6633,1.0,30.33,2 
LUMCON,ioos:station:LUMCON:101:1,2016-09-02T09:15:00Z,29.2533,-90.6633,1.0,30.31,2 
LUMCON,ioos:station:LUMCON:101:1,2016-09-02T09:30:00Z,29.2533,-90.6633,1.0,30.29,2 
LUMCON,ioos:station:LUMCON:101:1,2016-09-02T09:45:00Z,29.2533,-90.6633,1.0,30.28,2 
LUMCON,ioos:station:LUMCON:101:1,2016-09-02T10:00:00Z,29.2533,-90.6633,1.0,30.28,2 
LUMCON,ioos:station:LUMCON:101:1,2016-09-02T10:15:00Z,29.2533,-90.6633,1.0,30.23,2 
LUMCON,ioos:station:LUMCON:101:1,2016-09-02T10:30:00Z,29.2533,-90.6633,1.0,30.27,2 
LUMCON,ioos:station:LUMCON:101:1,2016-09-02T10:45:00Z,29.2533,-90.6633,1.0,30.25,2 
LUMCON,ioos:station:LUMCON:101:1,2016-09-02T11:00:00Z,29.2533,-90.6633,1.0,30.3,2 
LUMCON,ioos:station:LUMCON:101:1,2016-09-02T11:15:00Z,29.2533,-90.6633,1.0,30.29,2 
LUMCON,ioos:station:LUMCON:101:1,2016-09-02T11:30:00Z,29.2533,-90.6633,1.0,30.29,2 
LUMCON,ioos:station:LUMCON:101:1,2016-09-02T11:45:00Z,29.2533,-90.6633,1.0,30.1,2 
LUMCON,ioos:station:LUMCON:101:1,2016-09-02T12:00:00Z,29.2533,-90.6633,1.0,30.13,2 
LUMCON,ioos:station:LUMCON:101:1,2016-09-02T12:15:00Z,29.2533,-90.6633,1.0,30.04,2 
LUMCON,ioos:station:LUMCON:101:1,2016-09-02T12:30:00Z,29.2533,-90.6633,1.0,29.99,2 
LUMCON,ioos:station:LUMCON:101:1,2016-09-02T12:45:00Z,29.2533,-90.6633,1.0,29.94,2 
LUMCON,ioos:station:LUMCON:101:1,2016-09-02T13:00:00Z,29.2533,-90.6633,1.0,29.89,2 
LUMCON,ioos:station:LUMCON:101:1,2016-09-02T13:15:00Z,29.2533,-90.6633,1.0,29.87,2 
LUMCON,ioos:station:LUMCON:101:1,2016-09-02T13:30:00Z,29.2533,-90.6633,1.0,29.87,2 
LUMCON,ioos:station:LUMCON:101:1,2016-09-02T13:45:00Z,29.2533,-90.6633,1.0,29.89,2 
LUMCON,ioos:station:LUMCON:101:1,2016-09-02T14:00:00Z,29.2533,-90.6633,1.0,29.89,2 
LUMCON,ioos:station:LUMCON:101:1,2016-09-02T14:15:00Z,29.2533,-90.6633,1.0,29.92,2 
LUMCON,ioos:station:LUMCON:101:1,2016-09-02T14:30:00Z,29.2533,-90.6633,1.0,29.94,2 
LUMCON,ioos:station:LUMCON:101:1,2016-09-02T14:45:00Z,29.2533,-90.6633,1.0,29.94,2 
LUMCON,ioos:station:LUMCON:101:1,2016-09-02T15:00:00Z,29.2533,-90.6633,1.0,29.99,2 
LUMCON,ioos:station:LUMCON:101:1,2016-09-02T15:15:00Z,29.2533,-90.6633,1.0,30.1,2 
LUMCON,ioos:station:LUMCON:101:1,2016-09-02T15:30:00Z,29.2533,-90.6633,1.0,30.16,2 
LUMCON,ioos:station:LUMCON:101:1,2016-09-02T15:45:00Z,29.2533,-90.6633,1.0,30.17,2 
LUMCON,ioos:station:LUMCON:101:1,2016-09-02T16:00:00Z,29.2533,-90.6633,1.0,30.16,2 
LUMCON,ioos:station:LUMCON:101:1,2016-09-02T16:15:00Z,29.2533,-90.6633,1.0,30.13,2 
LUMCON,ioos:station:LUMCON:101:1,2016-09-02T16:30:00Z,29.2533,-90.6633,1.0,30.08,2 
LUMCON,ioos:station:LUMCON:101:1,2016-09-02T16:45:00Z,29.2533,-90.6633,1.0,30.03,2 
LUMCON,ioos:station:LUMCON:101:1,2016-09-02T17:00:00Z,29.2533,-90.6633,1.0,30.01,2 
LUMCON,ioos:station:LUMCON:101:1,2016-09-02T17:15:00Z,29.2533,-90.6633,1.0,30.0,2 
LUMCON,ioos:station:LUMCON:101:1,2016-09-02T17:30:00Z,29.2533,-90.6633,1.0,30.02,2 
LUMCON,ioos:station:LUMCON:101:1,2016-09-02T17:45:00Z,29.2533,-90.6633,1.0,30.21,2 
LUMCON,ioos:station:LUMCON:101:1,2016-09-02T18:00:00Z,29.2533,-90.6633,1.0,30.1,2 
LUMCON,ioos:station:LUMCON:101:1,2016-09-02T18:15:00Z,29.2533,-90.6633,1.0,30.43,2 
LUMCON,ioos:station:LUMCON:101:1,2016-09-02T18:30:00Z,29.2533,-90.6633,1.0,30.72,2 
LUMCON,ioos:station:LUMCON:101:1,2016-09-02T18:45:00Z,29.2533,-90.6633,1.0,30.26,2 
LUMCON,ioos:station:LUMCON:101:1,2016-09-02T19:00:00Z,29.2533,-90.6633,1.0,30.28,2 
LUMCON,ioos:station:LUMCON:101:1,2016-09-02T19:15:00Z,29.2533,-90.6633,1.0,30.28,2 
LUMCON,ioos:station:LUMCON:101:1,2016-09-02T19:30:00Z,29.2533,-90.6633,1.0,30.4,2 
LUMCON,ioos:station:LUMCON:101:1,2016-09-02T19:45:00Z,29.2533,-90.6633,1.0,30.46,2 
LUMCON,ioos:station:LUMCON:101:1,2016-09-02T20:00:00Z,29.2533,-90.6633,1.0,30.37,2 
LUMCON,ioos:station:LUMCON:101:1,2016-09-02T20:15:00Z,29.2533,-90.6633,1.0,30.51,2 
LUMCON,ioos:station:LUMCON:101:1,2016-09-02T20:30:00Z,29.2533,-90.6633,1.0,30.47,2 
LUMCON,ioos:station:LUMCON:101:1,2016-09-02T20:45:00Z,29.2533,-90.6633,1.0,30.77,2 
LUMCON,ioos:station:LUMCON:101:1,2016-09-02T21:00:00Z,29.2533,-90.6633,1.0,30.73,2 
LUMCON,ioos:station:LUMCON:101:1,2016-09-02T21:15:00Z,29.2533,-90.6633,1.0,31.04,2 
LUMCON,ioos:station:LUMCON:101:1,2016-09-02T21:30:00Z,29.2533,-90.6633,1.0,31.38,2 
LUMCON,ioos:station:LUMCON:101:1,2016-09-02T21:45:00Z,29.2533,-90.6633,1.0,31.48,2 
LUMCON,ioos:station:LUMCON:101:1,2016-09-02T22:00:00Z,29.2533,-90.6633,1.0,31.55,2 
LUMCON,ioos:station:LUMCON:101:1,2016-09-02T22:15:00Z,29.2533,-90.6633,1.0,31.76,2 
LUMCON,ioos:station:LUMCON:101:1,2016-09-02T22:30:00Z,29.2533,-90.6633,1.0,31.73,2 
LUMCON,ioos:station:LUMCON:101:1,2016-09-02T22:45:00Z,29.2533,-90.6633,1.0,31.39,2 
LUMCON,ioos:station:LUMCON:101:1,2016-09-02T23:00:00Z,29.2533,-90.6633,1.0,31.78,2 
LUMCON,ioos:station:LUMCON:101:1,2016-09-02T23:15:00Z,29.2533,-90.6633,1.0,31.82,2 
LUMCON,ioos:station:LUMCON:101:1,2016-09-02T23:30:00Z,29.2533,-90.6633,1.0,31.91,2 
LUMCON,ioos:station:LUMCON:101:1,2016-09-02T23:45:00Z,29.2533,-90.6633,1.0,31.91,2 
LUMCON,ioos:station:LUMCON:101:1,2016-09-03T00:00:00Z,29.2533,-90.6633,1.0,31.86,2 
LUMCON,ioos:station:LUMCON:101:1,2016-09-03T00:15:00Z,29.2533,-90.6633,1.0,31.81,2 
LUMCON,ioos:station:LUMCON:101:1,2016-09-03T00:30:00Z,29.2533,-90.6633,1.0,31.81,2 
LUMCON,ioos:station:LUMCON:101:1,2016-09-03T00:45:00Z,29.2533,-90.6633,1.0,31.79,2 
LUMCON,ioos:station:LUMCON:101:1,2016-09-03T01:00:00Z,29.2533,-90.6633,1.0,31.75,2 
LUMCON,ioos:station:LUMCON:101:1,2016-09-03T01:15:00Z,29.2533,-90.6633,1.0,31.74,2 
LUMCON,ioos:station:LUMCON:101:1,2016-09-03T01:30:00Z,29.2533,-90.6633,1.0,31.71,2 
LUMCON,ioos:station:LUMCON:101:1,2016-09-03T01:45:00Z,29.2533,-90.6633,1.0,31.67,2 
LUMCON,ioos:station:LUMCON:101:1,2016-09-03T02:00:00Z,29.2533,-90.6633,1.0,31.62,2 
LUMCON,ioos:station:LUMCON:101:1,2016-09-03T02:15:00Z,29.2533,-90.6633,1.0,31.59,2 
LUMCON,ioos:station:LUMCON:101:1,2016-09-03T02:30:00Z,29.2533,-90.6633,1.0,31.55,2 
LUMCON,ioos:station:LUMCON:101:1,2016-09-03T02:45:00Z,29.2533,-90.6633,1.0,31.5,2 
LUMCON,ioos:station:LUMCON:101:1,2016-09-03T03:00:00Z,29.2533,-90.6633,1.0,31.45,2 
LUMCON,ioos:station:LUMCON:101:1,2016-09-03T03:15:00Z,29.2533,-90.6633,1.0,31.37,2 
LUMCON,ioos:station:LUMCON:101:1,2016-09-03T03:30:00Z,29.2533,-90.6633,1.0,31.34,2 
LUMCON,ioos:station:LUMCON:101:1,2016-09-03T03:45:00Z,29.2533,-90.6633,1.0,31.33,2 
LUMCON,ioos:station:LUMCON:101:1,2016-09-03T04:00:00Z,29.2533,-90.6633,1.0,31.32,2 
LUMCON,ioos:station:LUMCON:101:1,2016-09-03T04:15:00Z,29.2533,-90.6633,1.0,31.33,2 
LUMCON,ioos:station:LUMCON:101:1,2016-09-03T04:30:00Z,29.2533,-90.6633,1.0,31.34,2 
LUMCON,ioos:station:LUMCON:101:1,2016-09-03T04:45:00Z,29.2533,-90.6633,1.0,31.31,2 
LUMCON,ioos:station:LUMCON:101:1,2016-09-03T05:00:00Z,29.2533,-90.6633,1.0,31.26,2 
LUMCON,ioos:station:LUMCON:101:1,2016-09-03T05:15:00Z,29.2533,-90.6633,1.0,31.24,2 
LUMCON,ioos:station:LUMCON:101:1,2016-09-03T05:30:00Z,29.2533,-90.6633,1.0,31.16,2 
LUMCON,ioos:station:LUMCON:101:1,2016-09-03T05:45:00Z,29.2533,-90.6633,1.0,31.19,2 
LUMCON,ioos:station:LUMCON:101:1,2016-09-03T06:00:00Z,29.2533,-90.6633,1.0,31.14,2 
LUMCON,ioos:station:LUMCON:101:1,2016-09-03T06:15:00Z,29.2533,-90.6633,1.0,31.16,2 
LUMCON,ioos:station:LUMCON:101:1,2016-09-03T06:30:00Z,29.2533,-90.6633,1.0,31.18,2 
LUMCON,ioos:station:LUMCON:101:1,2016-09-03T06:45:00Z,29.2533,-90.6633,1.0,31.15,2 
LUMCON,ioos:station:LUMCON:101:1,2016-09-03T07:00:00Z,29.2533,-90.6633,1.0,31.15,2 
LUMCON,ioos:station:LUMCON:101:1,2016-09-03T07:15:00Z,29.2533,-90.6633,1.0,31.09,2 
LUMCON,ioos:station:LUMCON:101:1,2016-09-03T07:30:00Z,29.2533,-90.6633,1.0,30.94,2 
LUMCON,ioos:station:LUMCON:101:1,2016-09-03T07:45:00Z,29.2533,-90.6633,1.0,30.96,2 
LUMCON,ioos:station:LUMCON:101:1,2016-09-03T08:00:00Z,29.2533,-90.6633,1.0,30.92,2 
LUMCON,ioos:station:LUMCON:101:1,2016-09-03T08:15:00Z,29.2533,-90.6633,1.0,30.89,2 
LUMCON,ioos:station:LUMCON:101:1,2016-09-03T08:30:00Z,29.2533,-90.6633,1.0,30.85,2 
LUMCON,ioos:station:LUMCON:101:1,2016-09-03T08:45:00Z,29.2533,-90.6633,1.0,30.84,2 
LUMCON,ioos:station:LUMCON:101:1,2016-09-03T09:00:00Z,29.2533,-90.6633,1.0,30.79,2 
LUMCON,ioos:station:LUMCON:101:1,2016-09-03T09:15:00Z,29.2533,-90.6633,1.0,30.84,2 
LUMCON,ioos:station:LUMCON:101:1,2016-09-03T09:30:00Z,29.2533,-90.6633,1.0,30.94,2 
LUMCON,ioos:station:LUMCON:101:1,2016-09-03T09:45:00Z,29.2533,-90.6633,1.0,30.81,2 
LUMCON,ioos:station:LUMCON:101:1,2016-09-03T10:00:00Z,29.2533,-90.6633,1.0,30.94,2 
LUMCON,ioos:station:LUMCON:101:1,2016-09-03T10:15:00Z,29.2533,-90.6633,1.0,30.95,2 
LUMCON,ioos:station:LUMCON:101:1,2016-09-03T10:30:00Z,29.2533,-90.6633,1.0,30.92,2 
LUMCON,ioos:station:LUMCON:101:1,2016-09-03T10:45:00Z,29.2533,-90.6633,1.0,30.84,2 
LUMCON,ioos:station:LUMCON:101:1,2016-09-03T11:00:00Z,29.2533,-90.6633,1.0,30.83,2 
LUMCON,ioos:station:LUMCON:101:1,2016-09-03T11:15:00Z,29.2533,-90.6633,1.0,30.64,2 
LUMCON,ioos:station:LUMCON:101:1,2016-09-03T11:30:00Z,29.2533,-90.6633,1.0,30.56,2 
LUMCON,ioos:station:LUMCON:101:1,2016-09-03T11:45:00Z,29.2533,-90.6633,1.0,30.54,2 
LUMCON,ioos:station:LUMCON:101:1,2016-09-03T12:00:00Z,29.2533,-90.6633,1.0,30.52,2 
LUMCON,ioos:station:LUMCON:101:1,2016-09-03T12:15:00Z,29.2533,-90.6633,1.0,30.46,2 
LUMCON,ioos:station:LUMCON:101:1,2016-09-03T12:30:00Z,29.2533,-90.6633,1.0,30.37,2 
LUMCON,ioos:station:LUMCON:101:1,2016-09-03T12:45:00Z,29.2533,-90.6633,1.0,30.31,2 
LUMCON,ioos:station:LUMCON:101:1,2016-09-03T13:00:00Z,29.2533,-90.6633,1.0,30.29,2 
LUMCON,ioos:station:LUMCON:101:1,2016-09-03T13:15:00Z,29.2533,-90.6633,1.0,30.32,2 
LUMCON,ioos:station:LUMCON:101:1,2016-09-03T13:30:00Z,29.2533,-90.6633,1.0,30.34,2 
LUMCON,ioos:station:LUMCON:101:1,2016-09-03T13:45:00Z,29.2533,-90.6633,1.0,30.28,2 
LUMCON,ioos:station:LUMCON:101:1,2016-09-03T14:00:00Z,29.2533,-90.6633,1.0,30.28,2 
LUMCON,ioos:station:LUMCON:101:1,2016-09-03T14:15:00Z,29.2533,-90.6633,1.0,30.3,2 
LUMCON,ioos:station:LUMCON:101:1,2016-09-03T14:30:00Z,29.2533,-90.6633,1.0,30.33,2 
LUMCON,ioos:station:LUMCON:101:1,2016-09-03T14:45:00Z,29.2533,-90.6633,1.0,30.37,2 
LUMCON,ioos:station:LUMCON:101:1,2016-09-03T15:00:00Z,29.2533,-90.6633,1.0,30.37,2 
LUMCON,ioos:station:LUMCON:101:1,2016-09-03T15:15:00Z,29.2533,-90.6633,1.0,30.4,2 
LUMCON,ioos:station:LUMCON:101:1,2016-09-03T15:30:00Z,29.2533,-90.6633,1.0,30.43,2 
LUMCON,ioos:station:LUMCON:101:1,2016-09-03T15:45:00Z,29.2533,-90.6633,1.0,30.66,2 
LUMCON,ioos:station:LUMCON:101:1,2016-09-03T16:00:00Z,29.2533,-90.6633,1.0,30.62,2 
LUMCON,ioos:station:LUMCON:101:1,2016-09-03T16:15:00Z,29.2533,-90.6633,1.0,30.74,2 
LUMCON,ioos:station:LUMCON:101:1,2016-09-03T16:30:00Z,29.2533,-90.6633,1.0,30.78,2 
LUMCON,ioos:station:LUMCON:101:1,2016-09-03T16:45:00Z,29.2533,-90.6633,1.0,30.84,2 
LUMCON,ioos:station:LUMCON:101:1,2016-09-03T17:00:00Z,29.2533,-90.6633,1.0,30.87,2 
LUMCON,ioos:station:LUMCON:101:1,2016-09-03T17:15:00Z,29.2533,-90.6633,1.0,30.59,2 
LUMCON,ioos:station:LUMCON:101:1,2016-09-03T17:30:00Z,29.2533,-90.6633,1.0,30.54,2 
LUMCON,ioos:station:LUMCON:101:1,2016-09-03T17:45:00Z,29.2533,-90.6633,1.0,30.54,2 
LUMCON,ioos:station:LUMCON:101:1,2016-09-03T18:00:00Z,29.2533,-90.6633,1.0,30.58,2 
LUMCON,ioos:station:LUMCON:101:1,2016-09-03T18:15:00Z,29.2533,-90.6633,1.0,30.58,2 
LUMCON,ioos:station:LUMCON:101:1,2016-09-03T18:30:00Z,29.2533,-90.6633,1.0,30.56,2 
LUMCON,ioos:station:LUMCON:101:1,2016-09-03T18:45:00Z,29.2533,-90.6633,1.0,30.61,2 
LUMCON,ioos:station:LUMCON:101:1,2016-09-03T19:00:00Z,29.2533,-90.6633,1.0,30.63,2 
LUMCON,ioos:station:LUMCON:101:1,2016-09-03T19:15:00Z,29.2533,-90.6633,1.0,30.64,2 
LUMCON,ioos:station:LUMCON:101:1,2016-09-03T19:30:00Z,29.2533,-90.6633,1.0,31.26,2 
LUMCON,ioos:station:LUMCON:101:1,2016-09-03T19:45:00Z,29.2533,-90.6633,1.0,31.61,2 
LUMCON,ioos:station:LUMCON:101:1,2016-09-03T20:00:00Z,29.2533,-90.6633,1.0,31.39,2 
LUMCON,ioos:station:LUMCON:101:1,2016-09-03T20:15:00Z,29.2533,-90.6633,1.0,31.59,2 
LUMCON,ioos:station:LUMCON:101:1,2016-09-03T20:30:00Z,29.2533,-90.6633,1.0,31.46,2 
LUMCON,ioos:station:LUMCON:101:1,2016-09-03T20:45:00Z,29.2533,-90.6633,1.0,31.41,2 
LUMCON,ioos:station:LUMCON:101:1,2016-09-03T21:00:00Z,29.2533,-90.6633,1.0,31.44,2 
LUMCON,ioos:station:LUMCON:101:1,2016-09-03T21:15:00Z,29.2533,-90.6633,1.0,31.48,2 
LUMCON,ioos:station:LUMCON:101:1,2016-09-03T21:30:00Z,29.2533,-90.6633,1.0,31.69,2 
LUMCON,ioos:station:LUMCON:101:1,2016-09-03T21:45:00Z,29.2533,-90.6633,1.0,31.74,2 
LUMCON,ioos:station:LUMCON:101:1,2016-09-03T22:00:00Z,29.2533,-90.6633,1.0,32.04,2 
LUMCON,ioos:station:LUMCON:101:1,2016-09-03T22:15:00Z,29.2533,-90.6633,1.0,32.03,2 
LUMCON,ioos:station:LUMCON:101:1,2016-09-03T22:30:00Z,29.2533,-90.6633,1.0,32.06,2 
LUMCON,ioos:station:LUMCON:101:1,2016-09-03T22:45:00Z,29.2533,-90.6633,1.0,31.98,2 
LUMCON,ioos:station:LUMCON:101:1,2016-09-03T23:00:00Z,29.2533,-90.6633,1.0,31.89,2 
LUMCON,ioos:station:LUMCON:101:1,2016-09-03T23:15:00Z,29.2533,-90.6633,1.0,31.91,2 
LUMCON,ioos:station:LUMCON:101:1,2016-09-03T23:30:00Z,29.2533,-90.6633,1.0,31.87,2 
LUMCON,ioos:station:LUMCON:101:1,2016-09-03T23:45:00Z,29.2533,-90.6633,1.0,31.9,2 
LUMCON,ioos:station:LUMCON:101:1,2016-09-04T00:00:00Z,29.2533,-90.6633,1.0,31.89,2 